Regional Weather Roundup
Issued by NWS

Home | Current Version | Previous Version | Text Only | Print | Product List | Glossary Off
Versions: 1 2 3 4 5 6 7 8 9 10 11 12 13 14 15 16 17 18 19 20 21 22 23 24 25 26 27

000
ASUS45 KBOU 300507
RWRCO

WEATHER ROUNDUP FOR COLORADO
NATIONAL WEATHER SERVICE DENVER/BOULDER CO
1100 PM MDT FRI JUL 29 2016

NOTE: "FAIR" INDICATES FEW OR NO CLOUDS BELOW 12000 FEET WITH NO
SIGNIFICANT WEATHER AND/OR OBSTRUCTIONS TO VISIBILITY.

COZ001>005-013-030-031-300600-
...NORTHWEST COLORADO...

CITY           SKY/WX    TMP DP  RH WIND       PRES   REMARKS
CRAIG          FAIR      63  39  41 CALM      30.10R
HAYDEN         FAIR      66  36  32 SE7       30.13S
MEEKER         FAIR      64  43  46 NE5       30.14R
MOUNT WERNER   NOT AVBL
STEAMBOAT SPGS FAIR      65  38  37 CALM      30.16S
WALDEN         FAIR      55  34  44 E7        30.27S
$$

COZ006>008-011-300600-
...WEST CENTRAL VALLEYS...

CITY           SKY/WX    TMP DP  RH WIND       PRES   REMARKS
GRAND JUNCTION FAIR      77  35  21 E5        29.97S
MONTROSE       FAIR      73  41  31 E9        30.09S
EAGLE          FAIR      70  37  30 E6        30.17R
RIFLE          FAIR      74  37  26 SE10      30.05R
DELTA          NOT AVBL
NUCLA          NOT AVBL
$$

COZ017>023-064>068-300600-
...SOUTHWEST COLORADO...

CITY           SKY/WX    TMP DP  RH WIND       PRES   REMARKS
DURANGO        FAIR      71  43  36 E9        30.22R
CORTEZ         FAIR      67  41  38 CALM      30.08R
PAGOSA SPRINGS FAIR      65  34  31 CALM      30.32R
TELLURIDE      FAIR      63  32  31 E6        30.42S
WOLF CREEK PAS MOCLDY    52  32  46 SW16      30.67R
$$

COZ009-010-012-014-032>034-037-058>063-300600-
...CENTRAL COLORADO...

CITY           SKY/WX    TMP DP  RH WIND       PRES   REMARKS
ASPEN          FAIR      61  37  41 SW8       30.26R
BUENA VISTA    FAIR      64  51  62 CALM      30.34R
COPPER MTN     FAIR      59  28  31 W6        30.63S
BERTHOUD PASS  CLOUDY    46  32  57 SW6       30.66S
COTTONWOOD PAS FAIR      61  50  67 CALM      30.47R
GUNNISON       FAIR      63  37  39 N6        30.29S
KREMMLING      FAIR      63  34  34 CALM      30.22S
LEADVILLE      FAIR      54  32  43 S3        30.45R
MONARCH PASS   FAIR      55  28  35 N8        30.74S
SALIDA         FAIR      68  54  60 SE17G24   30.37R
SUNLIGHT       FAIR      63  32  31 MISG      30.54F
WILKERSON PASS FAIR      50  46  87 S12G18    30.60F
$$

COZ069>075-300600-
...SAN LUIS VALLEY/SANGRE DE CRISTO MOUNTAINS...

CITY           SKY/WX    TMP DP  RH WIND       PRES   REMARKS
ALAMOSA        FAIR      65  42  43 SE15      30.26R
LA VETA PASS   TSTM      52  48  87 S7        30.51S
SAGUACHE       FAIR      66  46  48 E5        30.31S
$$

COZ035-036-038>040-300600-
...NORTHERN COLORADO FRONT RANGE...

CITY           SKY/WX    TMP DP  RH WIND       PRES   REMARKS
DENVER INTL AP MOCLDY    69  59  70 SE14      30.13F
DMNS CITY PARK   N/A     73  55  52 SW5G15    30.13R
AURORA         MOCLDY    70  58  63 S13       30.16R
FRONT RANGE AP NOT AVBL
ERIE MUNI ARPT FAIR      67  60  77 N7        30.13R
BOULDER MUN AP FAIR      68  59  73 N13       30.13S
CENTENNIAL     MOCLDY    70  55  59 S16       30.16S
BROOMFIELD     NOT AVBL
LONGMONT       NOT AVBL
$$

COZ041-046-047-076>085-087-088-300600-
...PIKES PEAK/PALMER DIVIDE AND SOUTHERN FOOTHILLS...

CITY           SKY/WX    TMP DP  RH WIND       PRES   REMARKS
COLO. SPRINGS  CLOUDY    68  59  73 E10       30.26R
A. F. ACADEMY  CLOUDY    67  58  74 SE10      30.26R
SCHRIEVER AFB  NOT AVBL
ELLICOTT       NOT AVBL
FALCON         CLOUDY    64  60  88 E12       30.30R
FORT CARSON    NOT AVBL
LIMON          MOCLDY    66  60  81 SE16G25   30.20F
MONUMENT HILL  FAIR      61  55  82 SE18G24   30.29S
TRINIDAD       NOT AVBL
$$

COZ042>045-048>051-090-091-300600-
...NORTHEAST COLORADO...

CITY           SKY/WX    TMP DP  RH WIND       PRES   REMARKS
GREELEY ARPT   MOCLDY    64  61  88 NE15G29   30.15R
AKRON          FAIR      68  60  75 SE12      30.13F
BURLINGTON     MOCLDY    67  61  81 SE5       30.17R
WRAY           NOT AVBL
STERLING       NOT AVBL
HOLYOKE        NOT AVBL
FORT MORGAN    NOT AVBL
$$

COZ086-089-092>099-300600-
...SOUTHEAST COLORADO...

CITY           SKY/WX    TMP DP  RH WIND       PRES   REMARKS
PUEBLO         FAIR      75  61  61 E13       30.12R
LA JUNTA       FAIR      72  62  71 E10       30.11R
LAMAR          FAIR      69  66  90 E7        30.08S
SPRINGFIELD      N/A     64  62  93 SE6       30.15R
$$




USA.gov is the U.S. government's official web portal to all federal, state and local government web resources and services.